Regional Weather Roundup
Issued by NWS State College, PA

Home | Current Version | Previous Version | Graphics & Text | Print | Product List | Glossary Off
Versions: 1 2 3 4 5 6 7 8 9 10 11 12 13 14 15 16 17 18 19 20 21 22 23 24 25 26 27 28 29 30 31 32 33 34 35 36 37 38 39 40 41 42 43 44 45 46 47 48 49 50

000
ASUS41 KCTP 250010
RWRCTP

REGIONAL WEATHER ROUNDUP
NATIONAL WEATHER SERVICE STATE COLLEGE PA
800 PM EDT SUN SEP 24 2017

Note: "fair" indicates few or no clouds below 12,000 feet with no
significant weather and/or obstructions to visibility.

* = STATION THAT DOES NOT REPORT PRECIPITATION /E.G. RAIN...SNOW...ETC/
    THUNDER OR FOG.

PAZ002>004-007>009-013>016-020>023-029>032-250100-
WESTERN PENNSYLVANIA

CITY           SKY/WX    TMP DP  RH WIND       PRES   REMARKS
ERIE           CLEAR     76  66  71 NE5       30.10S
MEADVILLE      CLEAR     77  68  73 N5        30.13R
FRANKLIN*      CLEAR     75  66  73 CALM      30.14R
NEW CASTLE     FAIR      75  63  66 NE3       30.11R
BEAVER COUNTY  NOT AVBL
BUTLER*        CLEAR     75  64  68 CALM      30.11S
PITTSBURGH INT PTCLDY    83  62  49 NE5       30.10R
PITTSBURGH     CLEAR     82  59  45 CALM      30.09S
INDIANA*       CLEAR     72  68  88 CALM      30.14R
LATROBE        CLEAR     75  66  73 CALM      30.10S
WASHINGTON CO* CLEAR     70  63  78 CALM      30.10S
$$

PAZ004>006-010>012-017>019-024>028-033>037-041-042-045-046-049>053-250100-
CENTRAL PENNSYLVANIA

CITY           SKY/WX    TMP DP  RH WIND       PRES   REMARKS
BRADFORD       CLEAR     74  64  71 NE3       30.18R
DUBOIS         CLEAR     77  61  57 CALM      30.14R
CLEARFIELD     CLEAR     75  65  70 N7        30.13R
JOHNSTOWN      CLEAR     75  60  59 CALM      30.16S
ALTOONA        CLEAR     75  67  76 CALM      30.12S
STATE COLLEGE  CLEAR     79  64  61 CALM      30.11R
WILLIAMSPORT   CLEAR     76  68  76 W3        30.06R
SELINSGROVE    CLEAR     70  70 100 CALM      30.07R FOG
FT INDIANTOWN  CLEAR     75  70  86 N5        30.03F
CAPITAL CITY   CLEAR     76  68  76 SW3       30.05R
HARRISBURG     CLEAR     76  73  91 CALM      30.04R
YORK           CLEAR     72  70  93 CALM      30.06R
$$

PAZ038>040-043-044-047-048-054-055-060>062-067>071-250100-
EASTERN PENNSYLVANIA

CITY           SKY/WX    TMP DP  RH WIND       PRES   REMARKS
SCRANTON       CLEAR     78  66  66 E5        30.08R
MOUNT POCONO   CLEAR     68  65  90 CALM      30.14R
ALLENTOWN      CLEAR     79  64  60 SW5       30.05R
QUAKERTOWN*    CLEAR     73  68  83 CALM      30.07R
READING        CLEAR     80  68  66 CALM      30.04R
LANCASTER      CLEAR     78  68  71 CALM      30.06R
COATESVILLE    CLEAR     77  68  73 CALM      30.08R
POTTSTOWN      CLEAR     75  69  81 CALM      30.06S
BLUE BELL      CLEAR     70  66  88 CALM      30.06R
DOYLESTOWN     CLEAR     77  68  73 CALM      30.05R
WILLOW GROVE   NOT AVBL
NORTH PHILA    CLEAR     85  65  51 S5        30.05R
PHILADELPHIA   PTCLDY    81  66  60 S6        30.05R
$$




USA.gov is the U.S. government's official web portal to all federal, state and local government web resources and services.